CZ-6A DEB, 61130

Orbit data source: Space-Track

CZ-6A DEB, 61130 is space debris in LEO originally from a launch on Tue, 06 Aug 2024 UTC launched from the Taiyaun Space Center, China (TSC). Debris objects in space refer to the collection of defunct objects orbiting the Earth. Examples of debris include non-operational satellites, rocket bodies, and fragments generated from explosions, collisions, or faulty payload assembly.

Loading next visibility...
Identifier
61130, 2024-140PY
Orbit
LEO
Country
Flag of CNCN / PRC
Related business
Manufacturer
SAST
Mission
Spacecraft
Bus & Motor
Unknown
Mass
Unknown
Launch date (UTC)
2024-08-06 (1 year ago)
Launch vehicle
Unknown
Launch site
Taiyaun Space Center, China (TSC)
Object type
Payload
Rocket body
Debris
Shape & HBR
Unknown shape, 0.1 m
Radar Cross Section
Small (<0.1 m²)

Expand to show TLE details & history
Last TLE update: 19 hours ago

TLE from 19 hours ago
0 CZ-6A DEB
1 61130U 24140PY  25354.24723926  .00003168  00000-0  12023-2 0  9994
2 61130  88.6191 271.6214 0067215 316.1971  43.3903 14.29629440 69286
Epoch: 2025-12-20T05:56Z
TLE epoch observation values (Epoch: 2025-12-20T05:56:01.472Z)
Latitude
-0.00006°
Longitude
93.53848°
Altitude
761.155 km
Speed
7.492 km/s
True Right ascension
18h 06m 29s
True Declination
0° 00' 00"
Sunlit
Object was in daylight at epoch
Visualization orbit readout
Latitude
Unknown
Longitude
Unknown
Altitude
Unknown
Speed
Unknown
Apparent Right ascension
Unknown
Apparent Declination
Unknown
Sunlit
N/A
Visualization observer readout
Local Sidereal Time
00:22:36
Azimuth
Unknown
Elevation
Unknown
Doppler factor
Unknown
Orbital elements
Apogee altitude
838.09 km
Perigee altitude
741.729 km
Semi-major axis
7,168.046 km
Eccentricity
0.00672
Inclination
88.6191°
RAAN
271.6214°
Arg. of periapsis
316.1971°
True anomaly
43.92266°
Mean anomaly
43.3903°
Eccentric anomaly
43.65616°
Mean motion
3.57637 °/min
Orbital period
100.66 mins
BSTAR
0.0012023
Loading maneuver chart data...
Computing Atmospheric mass density...
Loading historical data...
Loading historical data...
Loading historical data...
Loading historical data...
Loading historical data...
Loading historical data...
Loading historical data...

Documentation

Showing up to 5 results
|